Simultaneous Nadir Overpasses (SNOs) Predictions

Prediction of SNOs between FY3D and AQUA Satellite Orbit:

Table of predicted SNOs for the next 14.0 days since TLE Epoch: 10/7/2023
Index Date (FY3D) Time (FY3D) Lat,Lon (FY3D) SZA (FY3D ) Date (AQUA) Time (AQUA) Lat,Lon (AQUA) SZA (AQUA ) Distance(km) Time Diff (sec)
1 10/07/2023 18:40:41 -79.10, 59.40 94.85 10/07/2023 18:41:53 -79.11, 59.34 94.86 1.62 72
2 10/07/2023 19:31:18 78.80,-131.16 84.76 10/07/2023 19:31:10 78.80,-131.18 84.77 0.61 8
3 10/10/2023 08:26:11 79.04, 33.49 86.04 10/10/2023 08:26:43 79.03, 33.61 86.02 2.78 32
4 10/10/2023 09:16:44 -78.62,-156.31 94.51 10/10/2023 09:15:55 -78.62,-156.33 94.50 0.43 49
5 10/12/2023 21:21:00 79.18,-161.22 87.18 10/12/2023 21:22:11 79.18,-161.12 87.15 1.97 71
6 10/12/2023 22:11:35 -78.80, 8.82 93.33 10/12/2023 22:11:25 -78.81, 8.78 93.32 1.19 10
7 10/15/2023 11:06:26 -78.99, 173.85 92.14 10/15/2023 11:06:53 -78.99, 173.87 92.15 0.32 27
8 10/15/2023 11:57:02 78.65, -16.53 87.43 10/15/2023 11:56:09 78.66, -16.52 87.44 0.18 53
9 10/18/2023 00:01:13 -79.05, -20.21 91.14 10/18/2023 00:02:16 -79.06, -20.33 91.15 2.45 63
10 10/18/2023 00:51:54 78.90, 148.21 88.67 10/18/2023 00:51:36 78.89, 148.34 88.66 3.04 18
11 10/20/2023 13:46:42 79.00, -46.17 89.71 10/20/2023 13:46:58 78.99, -46.09 89.70 1.82 16



Historial Predications of SNOs between FY3D and AQUA
